This is the latest recevied weather packets stored in our database for station/object W4MLN-1. If no packets are shown the sender has not sent any weather packets the latest 10 day(s).
| Time | Temp. | Humidity | Pressure | Rain* | Wind** | Luminosity | Snow |
|---|---|---|---|---|---|---|---|
| 1777079343 | 15° C | 69% | 1012.5 hPa | 0 mm | - | 0 W/m² | - |
| 1777079044 | 15° C | 69% | 1012.5 hPa | 0 mm | - | 0 W/m² | - |
| 1777078743 | 15.56° C | 68% | 1012.4 hPa | 0 mm | - | 0 W/m² | - |
| 1777078444 | 15.56° C | 68% | 1012.4 hPa | 0 mm | - | 0 W/m² | - |
| 1777078141 | 16.11° C | 65% | 1012.4 hPa | 0 mm | - | 0 W/m² | - |
| 1777077840 | 16.11° C | 64% | 1012.4 hPa | 0 mm | - | 0 W/m² | - |
| 1777077541 | 16.67° C | 65% | 1012.4 hPa | 0 mm | - | 0 W/m² | - |
| 1777077241 | 16.67° C | 63% | 1012.3 hPa | 0 mm | - | 0 W/m² | - |
| 1777076941 | 17.22° C | 62% | 1012.3 hPa | 0 mm | - | 0 W/m² | - |
| 1777076641 | 17.78° C | 59% | 1012.2 hPa | 0 mm | - | 0 W/m² | - |
| 1777076341 | 18.33° C | 58% | 1012.2 hPa | 0 mm | - | 0 W/m² | - |
| 1777076041 | 18.89° C | 56% | 1012.1 hPa | 0 mm | - | 2 W/m² | - |
| 1777075742 | 19.44° C | 53% | 1012.1 hPa | 0 mm | - | 3 W/m² | - |
| 1777075441 | 20° C | 51% | 1012.1 hPa | 0 mm | - | 5 W/m² | - |
| 1777075139 | 20° C | 51% | 1012.1 hPa | 0 mm | - | 8 W/m² | - |
| 1777074838 | 20° C | 50% | 1012 hPa | 0 mm | - | 12 W/m² | - |
| 1777074536 | 20.56° C | 49% | 1012 hPa | 0 mm | - | 19 W/m² | - |
| 1777074233 | 21.11° C | 48% | 1012 hPa | 0 mm | - | 25 W/m² | - |
| 1777073933 | 21.11° C | 47% | 1012 hPa | 0 mm | - | 31 W/m² | - |
| 1777073632 | 21.67° C | 46% | 1011.9 hPa | 0 mm | - | 38 W/m² | - |
| 1777073333 | 21.67° C | 46% | 1011.9 hPa | 0 mm | - | 44 W/m² | - |
| 1777073033 | 22.22° C | 44% | 1011.9 hPa | 0 mm | - | 51 W/m² | - |
| 1777072733 | 22.22° C | 44% | 1011.9 hPa | 0 mm | - | 69 W/m² | - |
| 1777072434 | 22.22° C | 43% | 1011.9 hPa | 0 mm | - | 78 W/m² | - |
| 1777072133 | 22.78° C | 43% | 1011.9 hPa | 0 mm | - | 92 W/m² | - |
* Rain latest hour (hover to see other rain measurements)
** Current wind speed in m/s (hover to see current wind gust speed)